Location: Moscow
(55.7500°N, 37.5830°E)
Time: 11:43:04
(UTC+03:00)

Explorer 7 - Pass Details

Date: 08 December 2021
Orbit: 483 x 674 km, 50.3° (Epoch: 19 January)

Event Time Altitude Azimuth Distance (km) Brightness Sun altitude
Rises 06:52:38 0° 249° (WSW) 2,818 - -14.4°
Reaches altitude 10° 06:55:05 10° 241° (WSW) 1,882 - -14.1°
Exits shadow 06:55:16 11° 240° (WSW) 1,812 9.1 -14.1°
Maximum altitude 06:59:03 38° 174° (S) 855 8.0 -13.6°
Drops below altitude 10° 07:02:47 10° 106° (ESE) 1,776 10.9 -13.1°
Sets 07:05:02 0° 98° (E) 2,636 12.0 -12.8°
